Location: Roland
(31.1349°N, 85.4372°W)
Time: 22:17:07
(UTC+00:00)

Tiros 1 - Pass Details

Date: 26 April 2021
Orbit: 630 x 664 km, 48.4° (Epoch: 13 May)

Event Time Altitude Azimuth Distance (km) Brightness Sun altitude
Rises 12:01:41 0° 241° (WSW) 2,957 9.9 11.7°
Reaches altitude 10° 12:04:05 10° 246° (WSW) 2,043 9.2 12.2°
Maximum altitude 12:08:40 51° 323° (NW) 807 7.7 13.2°
Drops below altitude 10° 12:13:13 10° 40° (NE) 2,028 10.6 14.1°
Sets 12:15:36 0° 45° (NE) 2,933 11.4 14.6°
